Year,Month,Day,Hour,Minute,Value (Times are PST for temperature in C)
2016,07,19,00,00,16.20
2016,07,19,00,01,16.20
2016,07,19,00,02,16.20
2016,07,19,00,03,16.20
2016,07,19,00,04,16.20
2016,07,19,00,05,16.20
2016,07,19,00,06,16.20
2016,07,19,00,07,16.20
2016,07,19,00,08,16.20
2016,07,19,00,09,16.20
2016,07,19,00,10,16.20
2016,07,19,00,11,16.20
2016,07,19,00,12,16.20
2016,07,19,00,13,16.20
2016,07,19,00,14,16.20
2016,07,19,00,15,16.20
2016,07,19,00,16,16.20
2016,07,19,00,17,16.20
2016,07,19,00,18,16.20
2016,07,19,00,19,16.20
2016,07,19,00,20,16.20
2016,07,19,00,21,16.20
2016,07,19,00,22,16.20
2016,07,19,00,23,16.20
2016,07,19,00,24,16.20
2016,07,19,00,25,16.20
2016,07,19,00,26,16.10
2016,07,19,00,27,16.10
2016,07,19,00,28,16.10
2016,07,19,00,29,16.10
2016,07,19,00,30,16.10
2016,07,19,00,31,16.10
2016,07,19,00,32,16.10
2016,07,19,00,33,16.10
2016,07,19,00,34,16.10
2016,07,19,00,35,16.10
2016,07,19,00,36,16.10
2016,07,19,00,37,16.10
2016,07,19,00,38,16.10
2016,07,19,00,39,16.10
2016,07,19,00,40,16.10
2016,07,19,00,41,16.10
2016,07,19,00,42,16.10
2016,07,19,00,43,16.10
2016,07,19,00,44,16.10
2016,07,19,00,45,16.10
2016,07,19,00,46,16.10
2016,07,19,00,47,16.20
2016,07,19,00,48,16.20
2016,07,19,00,49,16.20
2016,07,19,00,50,16.20
2016,07,19,00,51,16.20
2016,07,19,00,52,16.20
2016,07,19,00,53,16.20
2016,07,19,00,54,16.30
2016,07,19,00,55,16.30
2016,07,19,00,56,16.30
2016,07,19,00,57,16.30
2016,07,19,00,58,16.30
2016,07,19,00,59,16.30
2016,07,19,01,00,16.30
2016,07,19,01,01,16.30
2016,07,19,01,02,16.30
2016,07,19,01,03,16.30
2016,07,19,01,04,16.30
2016,07,19,01,05,16.30
2016,07,19,01,06,16.30
2016,07,19,01,07,16.30
2016,07,19,01,08,16.30
2016,07,19,01,09,16.30
2016,07,19,01,10,16.30
2016,07,19,01,11,16.30
2016,07,19,01,12,16.40
2016,07,19,01,13,16.40
2016,07,19,01,14,16.40
2016,07,19,01,15,16.40
2016,07,19,01,16,16.40
2016,07,19,01,17,16.40
2016,07,19,01,18,16.50
2016,07,19,01,19,16.50
2016,07,19,01,20,16.50
2016,07,19,01,21,16.50
2016,07,19,01,22,16.60
2016,07,19,01,23,16.60
2016,07,19,01,24,16.60
2016,07,19,01,25,16.60
2016,07,19,01,26,16.60
2016,07,19,01,27,16.60
2016,07,19,01,28,16.60
2016,07,19,01,29,16.60
2016,07,19,01,30,16.60
2016,07,19,01,31,16.70
2016,07,19,01,32,16.70
2016,07,19,01,33,16.70
2016,07,19,01,34,16.70
2016,07,19,01,35,16.70
2016,07,19,01,36,16.70
2016,07,19,01,37,16.70
2016,07,19,01,38,16.70
2016,07,19,01,39,16.70
2016,07,19,01,40,16.70
2016,07,19,01,41,16.70
2016,07,19,01,42,16.80
2016,07,19,01,43,16.80
2016,07,19,01,44,16.80
2016,07,19,01,45,16.80
2016,07,19,01,46,16.80
2016,07,19,01,47,16.80
2016,07,19,01,48,16.80
2016,07,19,01,49,16.80
2016,07,19,01,50,16.80
2016,07,19,01,51,16.80
2016,07,19,01,52,16.80
2016,07,19,01,53,16.80
2016,07,19,01,54,16.90
2016,07,19,01,55,16.90
2016,07,19,01,56,16.90
2016,07,19,01,57,16.90
2016,07,19,01,58,16.90
2016,07,19,01,59,16.90
2016,07,19,02,00,16.90
2016,07,19,02,01,16.90
2016,07,19,02,02,17.00
2016,07,19,02,03,17.00
2016,07,19,02,04,17.00
2016,07,19,02,05,17.00
2016,07,19,02,06,17.00
2016,07,19,02,07,17.00
2016,07,19,02,08,17.00
2016,07,19,02,09,17.10
2016,07,19,02,10,17.10
2016,07,19,02,11,17.10
2016,07,19,02,12,17.10
2016,07,19,02,13,17.10
2016,07,19,02,14,17.10
2016,07,19,02,15,17.10
2016,07,19,02,16,17.10
2016,07,19,02,17,17.10
2016,07,19,02,18,17.10
2016,07,19,02,19,17.10
2016,07,19,02,20,17.20
2016,07,19,02,21,17.20
2016,07,19,02,22,17.20
2016,07,19,02,23,17.20
2016,07,19,02,24,17.20
2016,07,19,02,25,17.20
2016,07,19,02,26,17.20
2016,07,19,02,27,17.20
2016,07,19,02,28,17.20
2016,07,19,02,29,17.20
2016,07,19,02,30,17.20
2016,07,19,02,31,17.20
2016,07,19,02,32,17.20
2016,07,19,02,33,17.20
2016,07,19,02,34,17.20
2016,07,19,02,35,17.20
2016,07,19,02,36,17.20
2016,07,19,02,37,17.20
2016,07,19,02,38,17.20
2016,07,19,02,39,17.20
2016,07,19,02,40,17.20
2016,07,19,02,41,17.20
2016,07,19,02,42,17.20
2016,07,19,02,43,17.20
2016,07,19,02,44,17.20
2016,07,19,02,45,17.20
2016,07,19,02,46,17.20
2016,07,19,02,47,17.20
2016,07,19,02,48,17.20
2016,07,19,02,49,17.20
2016,07,19,02,50,17.20
2016,07,19,02,51,17.20
2016,07,19,02,52,17.20
2016,07,19,02,53,17.10
2016,07,19,02,54,17.10
2016,07,19,02,55,17.10
2016,07,19,02,56,17.10
2016,07,19,02,57,17.10
2016,07,19,02,58,17.10
2016,07,19,02,59,17.10
2016,07,19,03,00,17.10
2016,07,19,03,01,17.00
2016,07,19,03,02,17.00
2016,07,19,03,03,17.00
2016,07,19,03,04,17.00
2016,07,19,03,05,17.00
2016,07,19,03,06,17.00
2016,07,19,03,07,16.90
2016,07,19,03,08,16.90
2016,07,19,03,09,16.90
2016,07,19,03,10,16.90
2016,07,19,03,11,16.90
2016,07,19,03,12,16.90
2016,07,19,03,13,16.90
2016,07,19,03,14,16.90
2016,07,19,03,15,16.90
2016,07,19,03,16,16.90
2016,07,19,03,17,16.90
2016,07,19,03,18,16.90
2016,07,19,03,19,16.90
2016,07,19,03,20,16.90
2016,07,19,03,21,16.90
2016,07,19,03,22,16.90
2016,07,19,03,23,16.90
2016,07,19,03,24,16.90
2016,07,19,03,25,16.90
2016,07,19,03,26,16.90
2016,07,19,03,27,16.90
2016,07,19,03,28,16.90
2016,07,19,03,29,16.90
2016,07,19,03,30,16.90
2016,07,19,03,31,16.90
2016,07,19,03,32,16.90
2016,07,19,03,33,16.90
2016,07,19,03,34,16.90
2016,07,19,03,35,16.90
2016,07,19,03,36,16.90
2016,07,19,03,37,16.90
2016,07,19,03,38,16.90
2016,07,19,03,39,16.90
2016,07,19,03,40,16.90
2016,07,19,03,41,16.90
2016,07,19,03,42,16.80
2016,07,19,03,43,16.80
2016,07,19,03,44,16.80
2016,07,19,03,45,16.80
2016,07,19,03,46,16.80
2016,07,19,03,47,16.80
2016,07,19,03,48,16.80
2016,07,19,03,49,16.80
2016,07,19,03,50,16.80
2016,07,19,03,51,16.80
2016,07,19,03,52,16.80
2016,07,19,03,53,16.90
2016,07,19,03,54,16.80
2016,07,19,03,55,16.90
2016,07,19,03,56,16.90
2016,07,19,03,57,16.80
2016,07,19,03,58,16.90
2016,07,19,03,59,16.90
2016,07,19,04,00,16.80
2016,07,19,04,01,16.80
2016,07,19,04,02,16.80
2016,07,19,05,04,16.20
2016,07,19,05,05,16.20
2016,07,19,05,06,16.10
2016,07,19,05,07,16.10
2016,07,19,05,08,16.10
2016,07,19,05,09,16.10
2016,07,19,05,10,16.10
2016,07,19,05,11,16.10
2016,07,19,05,12,16.10
2016,07,19,05,13,16.10
2016,07,19,05,14,16.10
2016,07,19,05,15,16.00
2016,07,19,05,16,16.00
2016,07,19,05,17,16.00
2016,07,19,05,18,16.00
2016,07,19,05,19,16.00
2016,07,19,05,20,15.90
2016,07,19,05,21,15.90
2016,07,19,05,22,15.90
2016,07,19,05,23,15.90
2016,07,19,05,24,15.90
2016,07,19,05,25,15.80
2016,07,19,05,26,15.80
2016,07,19,05,27,15.80
2016,07,19,05,28,15.70
2016,07,19,05,29,15.70
2016,07,19,05,30,15.70
2016,07,19,05,31,15.70
2016,07,19,05,32,15.60
2016,07,19,05,33,15.60
2016,07,19,05,34,15.60
2016,07,19,05,35,15.60
2016,07,19,05,36,15.60
2016,07,19,05,37,15.60
2016,07,19,05,38,15.60
2016,07,19,05,39,15.60
2016,07,19,05,40,15.50
2016,07,19,05,41,15.50
2016,07,19,05,42,15.50
2016,07,19,05,43,15.50
2016,07,19,05,44,15.50
2016,07,19,05,45,15.50
2016,07,19,05,46,15.40
2016,07,19,05,47,15.40
2016,07,19,05,48,15.40
2016,07,19,05,49,15.40
2016,07,19,05,50,15.40
2016,07,19,05,51,15.40
2016,07,19,05,52,15.40
2016,07,19,05,53,15.40
2016,07,19,05,54,15.40
2016,07,19,05,55,15.40
2016,07,19,05,56,15.40
2016,07,19,05,57,15.40
2016,07,19,05,58,15.40
2016,07,19,05,59,15.40
2016,07,19,06,00,15.40
2016,07,19,06,01,15.40
2016,07,19,06,02,15.40
2016,07,19,06,03,15.40
2016,07,19,06,04,15.40
2016,07,19,06,05,15.40
2016,07,19,06,06,15.40
2016,07,19,06,07,15.40
2016,07,19,06,08,15.40
2016,07,19,06,09,15.40
2016,07,19,06,10,15.50
2016,07,19,06,11,15.50
2016,07,19,06,12,15.50
2016,07,19,06,13,15.50
2016,07,19,06,14,15.50
2016,07,19,06,15,15.50
2016,07,19,06,16,15.50
2016,07,19,06,17,15.50
2016,07,19,06,18,15.50
2016,07,19,06,19,15.50
2016,07,19,06,20,15.50
2016,07,19,06,21,15.50
2016,07,19,06,22,15.60
2016,07,19,06,23,15.60
2016,07,19,06,24,15.60
2016,07,19,06,25,15.60
2016,07,19,06,26,15.60
2016,07,19,06,27,15.60
2016,07,19,06,28,15.60
2016,07,19,06,29,15.60
2016,07,19,06,30,15.60
2016,07,19,06,31,15.60
2016,07,19,06,32,15.60
2016,07,19,06,33,15.60
2016,07,19,06,34,15.60
2016,07,19,06,35,15.60
2016,07,19,06,36,15.60
2016,07,19,06,37,15.60
2016,07,19,06,38,15.60
2016,07,19,06,39,15.60
2016,07,19,06,40,15.60
2016,07,19,06,41,15.60
2016,07,19,06,42,15.60
2016,07,19,06,43,15.60
2016,07,19,06,44,15.60
2016,07,19,06,45,15.60
2016,07,19,06,46,15.60
2016,07,19,06,47,15.60
2016,07,19,06,48,15.60
2016,07,19,06,49,15.60
2016,07,19,06,50,15.60
2016,07,19,06,51,15.60
2016,07,19,06,52,15.60
2016,07,19,06,53,15.60
2016,07,19,06,54,15.60
2016,07,19,06,55,15.60
2016,07,19,06,56,15.60
2016,07,19,06,57,15.60
2016,07,19,06,58,15.60
2016,07,19,06,59,15.60
2016,07,19,07,00,15.60
2016,07,19,07,01,15.60
2016,07,19,07,02,15.60
2016,07,19,07,03,15.60
2016,07,19,07,04,15.60
2016,07,19,07,05,15.60
2016,07,19,07,06,15.60
2016,07,19,07,07,15.70
2016,07,19,07,08,15.70
2016,07,19,07,09,15.70
2016,07,19,07,10,15.70
2016,07,19,07,11,15.70
2016,07,19,07,12,15.70
2016,07,19,07,13,15.70
2016,07,19,07,14,15.70
2016,07,19,07,15,15.70
2016,07,19,07,16,15.70
2016,07,19,07,17,15.70
2016,07,19,07,18,15.60
2016,07,19,07,19,15.60
2016,07,19,07,20,15.60
2016,07,19,07,21,15.60
2016,07,19,07,22,15.60
2016,07,19,07,23,15.60
2016,07,19,07,24,15.60
2016,07,19,07,25,15.60
2016,07,19,07,26,15.60
2016,07,19,07,27,15.60
2016,07,19,07,28,15.50
2016,07,19,07,29,15.50
2016,07,19,07,30,15.50
2016,07,19,07,31,15.50
2016,07,19,07,32,15.40
2016,07,19,07,33,15.40
2016,07,19,07,34,15.40
2016,07,19,07,35,15.40
2016,07,19,07,36,15.40
2016,07,19,07,37,15.40
2016,07,19,07,38,15.40
2016,07,19,07,39,15.40
2016,07,19,07,40,15.40
2016,07,19,07,41,15.40
2016,07,19,07,42,15.40
2016,07,19,07,43,15.40
2016,07,19,07,44,15.40
2016,07,19,07,45,15.40
2016,07,19,07,46,15.40
2016,07,19,07,47,15.40
2016,07,19,07,48,15.40
2016,07,19,07,49,15.40
2016,07,19,07,50,15.40
2016,07,19,07,51,15.40
2016,07,19,07,52,15.40
2016,07,19,07,53,15.40
2016,07,19,07,54,15.40
2016,07,19,07,55,15.40
2016,07,19,07,56,15.40
2016,07,19,07,57,15.40
2016,07,19,07,58,15.40
2016,07,19,07,59,15.40
2016,07,19,08,00,15.40
2016,07,19,08,01,15.40
2016,07,19,08,02,15.40
2016,07,19,08,03,15.40
2016,07,19,08,04,15.40
2016,07,19,08,05,15.40
2016,07,19,08,06,15.40
2016,07,19,08,07,15.40
2016,07,19,08,08,15.40
2016,07,19,08,09,15.40
2016,07,19,08,10,15.40
2016,07,19,08,11,15.40
2016,07,19,08,12,15.40
2016,07,19,08,13,15.40
2016,07,19,08,14,15.40
2016,07,19,08,15,15.30
2016,07,19,08,16,15.30
2016,07,19,08,17,15.30
2016,07,19,08,18,15.30
2016,07,19,08,19,15.30
2016,07,19,08,20,15.30
2016,07,19,08,21,15.30
2016,07,19,08,22,15.30
2016,07,19,08,23,15.30
2016,07,19,08,24,15.30
2016,07,19,08,25,15.40
2016,07,19,08,26,15.40
2016,07,19,08,27,15.40
2016,07,19,08,28,15.40
2016,07,19,08,29,15.40
2016,07,19,08,30,15.40
2016,07,19,08,31,15.40
2016,07,19,08,32,15.40
2016,07,19,08,33,15.40
2016,07,19,08,34,15.40
2016,07,19,08,35,15.40
2016,07,19,08,36,15.50
2016,07,19,08,37,15.50
2016,07,19,08,38,15.50
2016,07,19,08,39,15.50
2016,07,19,08,40,15.50
2016,07,19,08,41,15.50
2016,07,19,08,42,15.50
2016,07,19,08,43,15.50
2016,07,19,08,44,15.50
2016,07,19,08,45,15.50
2016,07,19,08,46,15.50
2016,07,19,08,47,15.60
2016,07,19,08,48,15.60
2016,07,19,08,49,15.60
2016,07,19,08,50,15.60
2016,07,19,08,51,15.60
2016,07,19,08,52,15.60
2016,07,19,08,53,15.60
2016,07,19,08,54,15.60
2016,07,19,08,55,15.60
2016,07,19,08,56,15.70
2016,07,19,08,57,15.70
2016,07,19,08,58,15.70
2016,07,19,08,59,15.70
2016,07,19,09,00,15.70
2016,07,19,09,01,15.80
2016,07,19,09,02,15.80
2016,07,19,09,03,15.80
2016,07,19,09,04,15.80
2016,07,19,09,05,15.80
2016,07,19,09,06,15.80
2016,07,19,09,07,15.80
2016,07,19,09,08,15.80
2016,07,19,09,09,15.80
2016,07,19,09,10,15.90
2016,07,19,09,11,15.90
2016,07,19,09,12,15.90
2016,07,19,09,13,15.90
2016,07,19,09,14,15.90
2016,07,19,09,15,15.90
2016,07,19,09,16,15.90
2016,07,19,09,17,15.90
2016,07,19,09,18,16.00
2016,07,19,09,19,16.00
2016,07,19,09,20,16.00
2016,07,19,09,21,16.00
2016,07,19,09,22,16.00
2016,07,19,09,23,16.00
2016,07,19,09,24,15.90
2016,07,19,09,25,15.90
2016,07,19,09,26,15.90
2016,07,19,09,27,15.90
2016,07,19,09,28,15.90
2016,07,19,09,29,15.90
2016,07,19,09,30,15.90
2016,07,19,09,31,16.00
2016,07,19,09,32,16.00
2016,07,19,09,33,16.00
2016,07,19,09,34,16.10
2016,07,19,09,35,16.10
2016,07,19,09,36,16.10
2016,07,19,09,37,16.20
2016,07,19,09,38,16.20
2016,07,19,09,39,16.20
2016,07,19,09,40,16.30
2016,07,19,09,41,16.30
2016,07,19,09,42,16.30
2016,07,19,09,43,16.40
2016,07,19,09,44,16.40
2016,07,19,09,45,16.40
2016,07,19,09,46,16.50
2016,07,19,09,47,16.50
2016,07,19,09,48,16.60
2016,07,19,09,49,16.60
2016,07,19,09,50,16.60
2016,07,19,09,51,16.60
2016,07,19,09,52,16.70
2016,07,19,09,53,16.70
2016,07,19,09,54,16.70
2016,07,19,09,55,16.70
2016,07,19,09,56,16.80
2016,07,19,09,57,16.80
2016,07,19,09,58,16.80
2016,07,19,09,59,16.80
2016,07,19,10,00,16.80
2016,07,19,10,01,16.80
2016,07,19,10,02,16.80
2016,07,19,10,03,16.80
2016,07,19,10,04,16.80
2016,07,19,10,05,16.80
2016,07,19,10,06,16.80
2016,07,19,10,07,16.80
2016,07,19,10,08,16.80
2016,07,19,10,09,16.80
2016,07,19,10,10,16.80
2016,07,19,10,11,16.80
2016,07,19,10,12,16.80
2016,07,19,10,13,16.90
2016,07,19,10,14,16.90
2016,07,19,10,15,17.00
2016,07,19,10,16,17.00
2016,07,19,10,17,17.10
2016,07,19,10,18,17.20
2016,07,19,10,19,17.20
2016,07,19,10,20,17.30
2016,07,19,10,21,17.40
2016,07,19,10,22,17.40
2016,07,19,10,23,17.40
2016,07,19,10,24,17.50
2016,07,19,10,25,17.60
2016,07,19,10,26,17.60
2016,07,19,10,27,17.60
2016,07,19,10,28,17.70
2016,07,19,10,29,17.70
2016,07,19,10,30,17.70
2016,07,19,10,31,17.80
2016,07,19,10,32,17.80
2016,07,19,10,33,17.80
2016,07,19,10,34,17.80
2016,07,19,10,35,17.70
2016,07,19,10,36,17.70
2016,07,19,10,37,17.60
2016,07,19,10,38,17.60
2016,07,19,10,39,17.50
2016,07,19,10,40,17.40
2016,07,19,10,41,17.40
2016,07,19,10,42,17.40
2016,07,19,10,43,17.30
2016,07,19,10,44,17.30
2016,07,19,10,45,17.30
2016,07,19,10,46,17.30
2016,07,19,10,47,17.30
2016,07,19,10,48,17.30
2016,07,19,10,49,17.30
2016,07,19,10,50,17.20
2016,07,19,10,51,17.20
2016,07,19,10,52,17.10
2016,07,19,10,53,17.10
2016,07,19,10,54,17.00
2016,07,19,10,55,17.00
2016,07,19,10,56,17.00
2016,07,19,10,57,17.00
2016,07,19,10,58,17.00
2016,07,19,10,59,17.10
2016,07,19,11,00,17.10
2016,07,19,11,01,17.10
2016,07,19,11,02,17.10
2016,07,19,11,03,17.10
2016,07,19,11,04,17.10
2016,07,19,11,05,17.10
2016,07,19,11,06,17.10
2016,07,19,11,07,17.10
2016,07,19,11,08,17.10
2016,07,19,11,09,17.10
2016,07,19,11,10,17.20
2016,07,19,11,11,17.20
2016,07,19,11,12,17.20
2016,07,19,11,13,17.20
2016,07,19,11,14,17.20
2016,07,19,11,15,17.20
2016,07,19,11,16,17.30
2016,07,19,11,17,17.30
2016,07,19,11,18,17.40
2016,07,19,11,19,17.40
2016,07,19,11,20,17.50
2016,07,19,11,21,17.50
2016,07,19,11,22,17.60
2016,07,19,11,23,17.60
2016,07,19,11,24,17.60
2016,07,19,11,25,17.70
2016,07,19,11,26,17.70
2016,07,19,11,27,17.70
2016,07,19,11,28,17.70
2016,07,19,11,29,17.70
2016,07,19,11,30,17.70
2016,07,19,11,31,17.70
2016,07,19,11,32,17.70
2016,07,19,11,33,17.70
2016,07,19,11,34,17.70
2016,07,19,11,35,17.80
2016,07,19,11,36,17.80
2016,07,19,11,37,17.80
2016,07,19,11,38,17.80
2016,07,19,11,39,17.90
2016,07,19,11,40,17.90
2016,07,19,11,41,18.00
2016,07,19,11,42,18.00
2016,07,19,11,43,18.10
2016,07,19,11,44,18.10
2016,07,19,11,45,18.10
2016,07,19,11,46,18.10
2016,07,19,11,47,18.20
2016,07,19,11,48,18.20
2016,07,19,11,49,18.20
2016,07,19,11,50,18.20
2016,07,19,11,51,18.20
2016,07,19,11,52,18.30
2016,07,19,11,53,18.30
2016,07,19,11,54,18.30
2016,07,19,11,55,18.30
2016,07,19,11,56,18.30
2016,07,19,11,57,18.30
2016,07,19,11,58,18.30
2016,07,19,11,59,18.30
2016,07,19,12,00,18.30
2016,07,19,12,01,18.30
2016,07,19,12,02,18.30
2016,07,19,12,03,18.30
2016,07,19,12,04,18.30
2016,07,19,12,05,18.30
2016,07,19,12,06,18.30
2016,07,19,12,07,18.30
2016,07,19,12,08,18.30
2016,07,19,12,09,18.30
2016,07,19,12,10,18.40
2016,07,19,12,11,18.40
2016,07,19,12,12,18.30
2016,07,19,12,13,18.30
2016,07,19,12,14,18.30
2016,07,19,12,15,18.40
2016,07,19,12,16,18.40
2016,07,19,12,17,18.40
2016,07,19,12,18,18.50
2016,07,19,12,19,18.50
2016,07,19,12,20,18.60
2016,07,19,12,21,18.60
2016,07,19,12,22,18.60
2016,07,19,12,23,18.60
2016,07,19,12,24,18.60
2016,07,19,12,25,18.60
2016,07,19,12,26,18.60
2016,07,19,12,27,18.60
2016,07,19,12,28,18.70
2016,07,19,12,29,18.70
2016,07,19,12,30,18.70
2016,07,19,12,31,18.70
2016,07,19,12,32,18.80
2016,07,19,12,33,18.80
2016,07,19,12,34,18.80
2016,07,19,12,35,18.80
2016,07,19,12,36,18.80
2016,07,19,12,37,18.80
2016,07,19,12,38,18.80
2016,07,19,12,39,18.80
2016,07,19,12,40,18.90
2016,07,19,12,41,19.00
2016,07,19,12,42,19.00
2016,07,19,12,43,19.10
2016,07,19,12,44,19.20
2016,07,19,12,45,19.30
2016,07,19,12,46,19.30
2016,07,19,12,47,19.30
2016,07,19,12,48,19.20
2016,07,19,12,49,19.20
2016,07,19,12,50,19.30
2016,07,19,12,51,19.30
2016,07,19,12,52,19.40
2016,07,19,12,53,19.60
2016,07,19,12,54,19.70
2016,07,19,12,55,19.80
2016,07,19,12,56,19.80
2016,07,19,12,57,19.90
2016,07,19,12,58,20.00
2016,07,19,12,59,20.10
2016,07,19,13,00,20.20
2016,07,19,13,01,20.20
2016,07,19,13,02,20.20
2016,07,19,13,03,20.30
2016,07,19,13,04,20.30
2016,07,19,13,05,20.40
2016,07,19,13,06,20.40
2016,07,19,13,07,20.40
2016,07,19,13,08,20.40
2016,07,19,13,09,20.50
2016,07,19,13,10,20.50
2016,07,19,13,11,20.50
2016,07,19,13,12,20.40
2016,07,19,13,13,20.40
2016,07,19,13,14,20.30
2016,07,19,13,15,20.30
2016,07,19,13,16,20.20
2016,07,19,13,17,20.10
2016,07,19,13,18,20.10
2016,07,19,13,19,20.00
2016,07,19,13,20,20.00
2016,07,19,13,21,20.00
2016,07,19,13,22,20.10
2016,07,19,13,23,20.10
2016,07,19,13,24,20.20
2016,07,19,13,25,20.30
2016,07,19,13,26,20.30
2016,07,19,13,27,20.40
2016,07,19,13,28,20.50
2016,07,19,13,29,20.60
2016,07,19,13,30,20.60
2016,07,19,13,31,20.60
2016,07,19,13,32,20.60
2016,07,19,13,33,20.70
2016,07,19,13,34,20.70
2016,07,19,13,35,20.70
2016,07,19,13,36,20.70
2016,07,19,13,37,20.60
2016,07,19,13,38,20.60
2016,07,19,13,39,20.50
2016,07,19,13,40,20.50
2016,07,19,13,41,20.60
2016,07,19,13,42,20.70
2016,07,19,13,43,20.80
2016,07,19,13,44,20.90
2016,07,19,13,45,21.00
2016,07,19,13,46,21.20
2016,07,19,13,47,21.30
2016,07,19,13,48,21.40
2016,07,19,13,49,21.40
2016,07,19,13,50,21.50
2016,07,19,13,51,21.60
2016,07,19,13,52,21.60
2016,07,19,13,53,21.60
2016,07,19,13,54,21.70
2016,07,19,13,55,21.70
2016,07,19,13,56,21.70
2016,07,19,13,57,21.70
2016,07,19,13,58,21.70
2016,07,19,13,59,21.70
2016,07,19,14,00,21.70
2016,07,19,14,01,21.70
2016,07,19,14,02,21.70
2016,07,19,14,03,21.70
2016,07,19,14,04,21.70
2016,07,19,14,05,21.60
2016,07,19,14,06,21.60
2016,07,19,14,07,21.50
2016,07,19,14,08,21.50
2016,07,19,14,09,21.60
2016,07,19,14,10,21.70
2016,07,19,14,11,21.70
2016,07,19,14,12,21.70
2016,07,19,14,13,21.60
2016,07,19,14,14,21.50
2016,07,19,14,15,21.60
2016,07,19,14,16,21.60
2016,07,19,14,17,21.70
2016,07,19,14,18,21.80
2016,07,19,14,19,21.80
2016,07,19,14,20,21.90
2016,07,19,14,21,22.00
2016,07,19,14,22,22.00
2016,07,19,14,23,22.00
2016,07,19,14,24,22.00
2016,07,19,14,25,22.00
2016,07,19,14,26,22.10
2016,07,19,14,27,22.10
2016,07,19,14,28,22.10
2016,07,19,14,29,22.10
2016,07,19,14,30,22.10
2016,07,19,14,31,22.10
2016,07,19,14,32,22.00
2016,07,19,14,33,22.00
2016,07,19,14,34,22.00
2016,07,19,14,35,22.00
2016,07,19,14,36,22.00
2016,07,19,14,37,21.90
2016,07,19,14,38,21.90
2016,07,19,14,39,22.00
2016,07,19,14,40,22.00
2016,07,19,14,41,21.90
2016,07,19,14,42,21.90
2016,07,19,14,43,21.90
2016,07,19,14,44,21.80
2016,07,19,14,45,21.70
2016,07,19,14,46,21.70
2016,07,19,14,47,21.60
2016,07,19,14,48,21.60
2016,07,19,14,49,21.70
2016,07,19,14,50,21.70
2016,07,19,14,51,21.80
2016,07,19,14,52,21.80
2016,07,19,14,53,21.80
2016,07,19,14,54,21.80
2016,07,19,14,55,21.90
2016,07,19,14,56,22.00
2016,07,19,14,57,22.00
2016,07,19,14,58,22.00
2016,07,19,14,59,21.90
2016,07,19,15,00,21.90
2016,07,19,15,01,21.90
2016,07,19,15,02,21.80
2016,07,19,15,03,21.80
2016,07,19,15,04,21.80
2016,07,19,15,05,21.80
2016,07,19,15,06,21.80
2016,07,19,15,07,21.90
2016,07,19,15,08,21.90
2016,07,19,15,09,21.90
2016,07,19,15,10,21.80
2016,07,19,15,11,21.80
2016,07,19,15,12,21.70
2016,07,19,15,13,21.70
2016,07,19,15,14,21.70
2016,07,19,15,15,21.80
2016,07,19,15,16,21.80
2016,07,19,15,17,21.80
2016,07,19,15,18,21.80
2016,07,19,15,19,21.90
2016,07,19,15,20,21.90
2016,07,19,15,21,22.00
2016,07,19,15,22,22.00
2016,07,19,15,23,22.00
2016,07,19,15,24,22.10
2016,07,19,15,25,22.10
2016,07,19,15,26,22.00
2016,07,19,15,27,22.00
2016,07,19,15,28,22.00
2016,07,19,15,29,22.00
2016,07,19,15,30,22.10
2016,07,19,15,31,22.10
2016,07,19,15,32,22.10
2016,07,19,15,33,22.10
2016,07,19,15,34,22.10
2016,07,19,15,35,22.10
2016,07,19,15,36,22.10
2016,07,19,15,37,22.10
2016,07,19,15,38,22.10
2016,07,19,15,39,22.10
2016,07,19,15,40,22.10
2016,07,19,15,41,22.00
2016,07,19,15,42,22.00
2016,07,19,15,43,22.00
2016,07,19,15,44,21.90
2016,07,19,15,45,21.80
2016,07,19,15,46,21.70
2016,07,19,15,47,21.60
2016,07,19,15,48,21.60
2016,07,19,15,49,21.60
2016,07,19,15,50,21.60
2016,07,19,15,51,21.60
2016,07,19,15,52,21.60
2016,07,19,15,53,21.60
2016,07,19,15,54,21.60
2016,07,19,15,55,21.60
2016,07,19,15,56,21.50
2016,07,19,15,57,21.40
2016,07,19,15,58,21.40
2016,07,19,15,59,21.30
2016,07,19,16,00,21.30
2016,07,19,16,01,21.30
2016,07,19,16,02,21.40
2016,07,19,16,03,21.40
2016,07,19,16,04,21.40
2016,07,19,16,05,21.40
2016,07,19,16,06,21.30
2016,07,19,16,07,21.20
2016,07,19,16,08,21.10
2016,07,19,16,09,21.00
2016,07,19,16,10,21.00
2016,07,19,16,11,20.90
2016,07,19,16,12,20.80
2016,07,19,16,13,20.70
2016,07,19,16,14,20.60
2016,07,19,16,15,20.60
2016,07,19,16,16,20.50
2016,07,19,16,17,20.50
2016,07,19,16,18,20.50
2016,07,19,16,19,20.50
2016,07,19,16,20,20.40
2016,07,19,16,21,20.40
2016,07,19,16,22,20.40
2016,07,19,16,23,20.50
2016,07,19,16,24,20.50
2016,07,19,16,25,20.60
2016,07,19,16,26,20.70
2016,07,19,16,27,20.80
2016,07,19,16,28,20.80
2016,07,19,16,29,20.90
2016,07,19,16,30,20.90
2016,07,19,16,31,21.00
2016,07,19,16,32,21.10
2016,07,19,16,33,21.20
2016,07,19,16,34,21.30
2016,07,19,16,35,21.40
2016,07,19,16,36,21.40
2016,07,19,16,37,21.50
2016,07,19,16,38,21.60
2016,07,19,16,39,21.60
2016,07,19,16,40,21.60
2016,07,19,16,41,21.60
2016,07,19,16,42,21.50
2016,07,19,16,43,21.40
2016,07,19,16,44,21.30
2016,07,19,16,45,21.30
2016,07,19,16,46,21.30
2016,07,19,16,47,21.30
2016,07,19,16,48,21.30
2016,07,19,16,49,21.40
2016,07,19,16,50,21.40
2016,07,19,16,51,21.40
2016,07,19,16,52,21.50
2016,07,19,16,53,21.60
2016,07,19,16,54,21.60
2016,07,19,16,55,21.70
2016,07,19,16,56,21.80
2016,07,19,16,57,21.80
2016,07,19,16,58,21.80
2016,07,19,16,59,21.80
2016,07,19,17,00,21.90
2016,07,19,17,01,21.90
2016,07,19,17,02,22.00
2016,07,19,17,03,22.00
2016,07,19,17,04,22.00
2016,07,19,17,05,22.00
2016,07,19,17,06,22.00
2016,07,19,17,07,21.90
2016,07,19,17,08,21.90
2016,07,19,17,09,21.90
2016,07,19,17,10,21.90
2016,07,19,17,11,22.00
2016,07,19,17,12,22.10
2016,07,19,17,13,22.10
2016,07,19,17,14,22.20
2016,07,19,17,15,22.20
2016,07,19,17,16,22.20
2016,07,19,17,17,22.30
2016,07,19,17,18,22.30
2016,07,19,17,19,22.30
2016,07,19,17,20,22.30
2016,07,19,17,21,22.30
2016,07,19,17,22,22.30
2016,07,19,17,23,22.30
2016,07,19,17,24,22.30
2016,07,19,17,25,22.40
2016,07,19,17,26,22.40
2016,07,19,17,27,22.50
2016,07,19,17,28,22.50
2016,07,19,17,29,22.60
2016,07,19,17,30,22.60
2016,07,19,17,31,22.60
2016,07,19,17,32,22.50
2016,07,19,17,33,22.50
2016,07,19,17,34,22.50
2016,07,19,17,35,22.40
2016,07,19,17,36,22.40
2016,07,19,17,37,22.30
2016,07,19,17,38,22.30
2016,07,19,17,39,22.20
2016,07,19,17,40,22.10
2016,07,19,17,41,22.00
2016,07,19,17,42,21.80
2016,07,19,17,43,21.70
2016,07,19,17,44,21.50
2016,07,19,17,45,21.30
2016,07,19,17,46,21.20
2016,07,19,17,47,21.10
2016,07,19,17,48,21.00
2016,07,19,17,49,20.90
2016,07,19,17,50,20.90
2016,07,19,17,51,20.80
2016,07,19,17,52,20.80
2016,07,19,17,53,20.80
2016,07,19,17,54,20.80
2016,07,19,17,55,20.80
2016,07,19,17,56,20.80
2016,07,19,17,57,20.70
2016,07,19,17,58,20.70
2016,07,19,17,59,20.60
2016,07,19,18,00,20.60
2016,07,19,18,01,20.50
2016,07,19,18,02,20.50
2016,07,19,18,03,20.50
2016,07,19,18,04,20.40
2016,07,19,18,05,20.40
2016,07,19,18,06,20.30
2016,07,19,18,07,20.30
2016,07,19,18,08,20.30
2016,07,19,18,09,20.30
2016,07,19,18,10,20.30
2016,07,19,18,11,20.30
2016,07,19,18,12,20.20
2016,07,19,18,13,20.20
2016,07,19,18,14,20.20
2016,07,19,18,15,20.20
2016,07,19,18,16,20.10
2016,07,19,18,17,20.10
2016,07,19,18,18,20.20
2016,07,19,18,19,20.20
2016,07,19,18,20,20.20